Погода в Учкудуке

Узбекистан     42°09′09″N   63°33′44″E
темп.,
°C
ветер,
м/с
пор.,
м/с
влажн.,
%
обл.,
%
осадки,
мм/ч
давл.,
гПа
погр.,
м
3 марта, ср
ср323:00+3в345699 0.0 1028243
02:00+1св356185 0.0 1027114
05:000всв456291 0.0 102798
08:000в4663100 0.0 1026140
11:00+4вюв445098 0.0 1026422
14:00+6ююв124599 0.0 1023925
17:00+8ю224675 0.0 10221096
20:00+5ююз22590 0.0 102122
4 марта, чт
чт423:00+4вюв12670 0.0 102122
02:00+4вюв34680 0.0 101922
05:00+3вюв446822 0.0 101828
08:00+4юв456599 0.0 101767
11:00+9ю344989 0.0 1017364
14:00+9зсз11115595 0.0 10181008
17:00+5сз797792 1.6 1021745
20:00+4сз697130 0.0 1025963
5 марта, пт
пт523:00+2ссз588342 0.0 1027248
02:00+1сз118221 0.0 102922
05:000юв118610 0.0 103022
08:00+1вюв34780 0.0 103162
11:00+5юв55650 0.0 1030670
14:00+8юв44450 0.0 1027980
17:00+9вюв45330 0.0 10241231
20:00+7в694533 0.0 1022175
6 марта, сб
сб623:00+5всв8145067 0.0 1020303
02:00+4всв71351100 0.0 1019220
05:00+3св10154899 0.0 1017234
08:00+3св111643100 0.0 1017300
11:00+5св101339100 0.1 1018343
14:00+7ссв6734100 0.0 1017508
17:00+6ссв6947100 0.1 1018466
20:00+5ссв5857100 0.1 1019565
7 марта, вс
вс723:00+4с3767100 0.1 1020320
02:00+2с3472100 0.0 101997
05:00+1с2272100 0.0 102022
08:00+1в11690 0.0 102022
11:00+5ююв33520 0.0 1020540
14:00+8ю44400 0.0 1018848
17:00+9ю443113 0.0 1016942
20:00+7ю123786 0.0 101622